Hourly Weather Roundup
Issued by NWS Central Illinois

Home | Current Version | Previous Version | Text Only | Print | Product List | Glossary On
Versions: 1 2 3 4 5 6 7 8 9 10 11 12 13 14 15 16 17 18 19 20 21 22 23 24 25 26 27 28 29 30 31 32 33 34 35 36 37 38 39 40 41 42 43 44 45 46 47 48 49 50
000
NZUS43 KILX 250410
HWRILX

Area Weather Roundup
National Weather Service Lincoln IL
1100 PM CDT MON JUL 24 2017

NOTE:  "FAIR" indicates few or no clouds below 12,000 feet, with
       no sigificant weather and/or obstructions to visibility.


CITY           SKY/WX    TMP DP  RH WIND       PRES   REMARKS
Bloomington    CLEAR     64  60  87 E8        30.10R
Champaign      CLEAR     67  61  81 NE9       30.09R
Danville       CLEAR     63  62  97 NE5       30.07R
Decatur        CLEAR     66  63  90 NE7       30.08R
Effingham      CLEAR     71  68  88 NE3       30.07R
Flora          CLEAR     74  69  83 NE3       30.04S
Galesburg      CLEAR     64  62  91 CALM      30.09R
Jacksonville   CLEAR     69  65  89 NE3       30.05F
Lacon          CLEAR     65  61  87 E6        30.08R
Lawrenceville  CLEAR     72  68  87 NE6       30.04R
Litchfield     CLEAR     71  67  87 NE3       30.05R
$$


CITY           SKY/WX    TMP DP  RH WIND       PRES   REMARKS
Lincoln        CLEAR     68  65  90 E5        30.07S
Macomb         CLEAR     64  63  97 NE5       30.09S
Mattoon        CLEAR     68  66  93 NE6       30.06R
Mt Carmel AP   CLEAR     71  67  87 CALM      30.04R
Olney-Noble AP CLEAR     72  69  92 NE5       30.05R
Paris AP       CLEAR     66  64  94 N5        30.09R
Peoria         CLEAR     69  63  81 E7        30.08R
Pontiac        CLEAR     63  63  97 E7        30.11R
Rantoul        CLEAR     67  63  85 NE8       30.10R
Robinson       CLEAR     69  67  93 NE5       30.06R
Springfield    MOCLDY    73  67  81 E9        30.06R
Taylorville    CLEAR     71  65  83 E8        30.06R
$$

...REGIONAL REPORTS...


CITY           SKY/WX    TMP DP  RH WIND       PRES   REMARKS
Chicago O`Hare PTCLDY    68  59  73 NE7       30.11S
Kankakee       CLEAR     63  61  94 NE5       30.12R
Moline         CLEAR     65  60  84 E5        30.08R
Mount Sterling CLEAR     66  65  94 E3        30.06S
Mount Vernon   CLEAR     74  68  81 NE7       30.03R
Pittsfield     CLEAR     70  67  91 NE5       30.06S
Quincy         CLEAR     71  65  81 E7        30.05R
Rockford       CLEAR     66  59  78 E8        30.12R
$$


CITY           SKY/WX    TMP DP  RH WIND       PRES   REMARKS
Burlington     CLEAR     69  65  86 E5        30.07R
Cedar Rapids   CLEAR     63  63 100 E8        30.07R
Des Moines     CLEAR     74  65  73 E9        30.03R
Kirksville     CLEAR     70  66  87 E7        30.05R
Ottumwa        CLEAR     69  66  90 E9        30.04R
St Louis       CLEAR     79  68  69 E10       30.03  HX  81
$$


CITY           SKY/WX    TMP DP  RH WIND       PRES   REMARKS
Terre Haute    CLEAR     69  64  84 N5        30.07R
Evansville     CLEAR     76  68  76 N6        30.02S
Indianapolis   CLEAR     71  60  68 E9        30.07R
Lafayette      CLEAR     65  63  93 NE7       30.08R
Madison        PTCLDY    61  57  87 CALM      30.12R
Milwaukee      CLEAR     64  56  75 NE3       30.12R
$$






USA.gov is the U.S. government's official web portal to all federal, state and local government web resources and services.